Weather History for Albert Lea, MN

Change the Weather History Date:

Thursday, February 7, 2013

  Actual Average Record
Temperature  
Mean Temperature 28 °F -  
Max Temperature 33 °F 26 °F 41 °F (2002)
Min Temperature 24 °F 11 °F -13 °F (2003)
Degree Days  
Heating Degree Days 36    
Moisture  
Dew Point 27 °F    
Average Humidity 98    
Maximum Humidity 100    
Minimum Humidity 86    
Precipitation  
Precipitation 0.00 in - - ()
Sea Level Pressure  
Sea Level Pressure 30.03 in    
Wind  
Wind Speed 6 mph (North)    
Max Wind Speed 15 mph    
Max Gust Speed 18 mph    
Visibility 3 miles    
Events Fog    
Averages and records for this station are not official NWS values.
T = Trace of Precipitation, MM = Missing Value Source: NWS Daily Summary

Daily Weather History Graph

Daily Weather History Graph

Search for Another Location

Airport:

Trip Planner

Search our weather history database for the weather conditions in past years. The results will help you decide how hot, cold, wet, or windy it might be!

Date:

Astronomy

Feb. 07, 2013 Rise Set
Actual Time 7:22 AM CST 5:33 PM CST
Civil Twilight 6:52 AM CST 6:03 PM CST
Nautical Twilight 6:18 AM CST 6:37 PM CST
Astronomical Twilight 5:45 AM CST 7:10 PM CST
Moon 5:05 AM CST (2/7) 2:55 PM CST (2/7)
Length of Visible Light 11h 10m
Length of Day
10h 10m
Waning Crescent, 9% of the Moon is Illuminated
Feb 7
Waning Crescent
Feb 10
New
Feb 17
First Quarter
Feb 25
Full
Mar 4
Last Quarter

Hourly Weather History & Observations

Time (CST) Temp. Windchill Dew Point Humidity Pressure Visibility Wind Dir Wind Speed Gust Speed Precip Events Conditions
12:29 AM 33.8 °F 29.6 °F 33.8 °F 100% 29.91 in 4.0 mi SSE 4.6 mph - N/A   Clear
12:50 AM 33.8 °F - 33.8 °F 100% 29.91 in 4.0 mi Calm Calm - N/A   Clear
1:10 AM 33.8 °F 30.8 °F 33.8 °F 100% 29.91 in 3.0 mi SSE 3.5 mph - N/A   Clear
1:29 AM 30.2 °F - 30.2 °F 100% 29.91 in 2.5 mi Calm Calm - N/A   Clear
1:50 AM 30.2 °F - 30.2 °F 100% 29.92 in 1.8 mi Calm Calm - N/A   Mist
2:10 AM 30.2 °F - 30.2 °F 100% 29.93 in 0.5 mi Calm Calm - N/A Fog Light Freezing Fog
2:29 AM 30.2 °F - 30.2 °F 100% 29.93 in 0.2 mi Calm Calm - N/A Fog Light Freezing Fog
2:50 AM 28.4 °F - 28.4 °F 100% 29.92 in 1.2 mi Calm Calm - N/A   Mostly Cloudy
3:10 AM 26.6 °F - 26.6 °F 100% 29.92 in 0.2 mi Calm Calm - N/A Fog Light Freezing Fog
3:50 AM 26.6 °F - 26.6 °F 100% 29.91 in 0.2 mi Calm Calm - N/A Fog Light Freezing Fog
4:10 AM 26.6 °F 22.6 °F 26.6 °F 100% 29.91 in 0.2 mi North 3.5 mph - N/A Fog Light Freezing Fog
4:30 AM 26.6 °F - 26.6 °F 100% 29.92 in 0.2 mi Calm Calm - N/A Fog Light Freezing Fog
4:50 AM 26.6 °F 21.2 °F 26.6 °F 100% 29.92 in 0.2 mi NNW 4.6 mph - N/A Fog Light Freezing Fog
5:10 AM 26.6 °F 22.6 °F 26.6 °F 100% 29.92 in 0.5 mi NNW 3.5 mph - N/A Fog Light Freezing Fog
5:30 AM 28.4 °F 22.2 °F 28.4 °F 100% 29.92 in 1.8 mi North 5.8 mph - N/A   Overcast
5:50 AM 30.2 °F 24.3 °F 30.2 °F 100% 29.92 in 1.0 mi North 5.8 mph - N/A   Overcast
6:10 AM 30.2 °F 24.3 °F 30.2 °F 100% 29.93 in 1.0 mi North 5.8 mph - N/A   Overcast
6:30 AM 28.4 °F 21.2 °F 28.4 °F 100% 29.94 in 0.8 mi NNW 6.9 mph - N/A   Overcast
6:50 AM 26.6 °F 18.2 °F 26.6 °F 100% 29.94 in 1.0 mi North 8.1 mph - N/A   Overcast
7:10 AM 26.6 °F 19.1 °F 26.6 °F 100% 29.95 in 0.8 mi North 6.9 mph - N/A   Overcast
7:30 AM 26.6 °F 18.2 °F 26.6 °F 100% 29.96 in 0.8 mi North 8.1 mph - N/A   Overcast
7:50 AM 26.6 °F 19.1 °F 26.6 °F 100% 29.97 in 0.2 mi North 6.9 mph - N/A Fog Light Freezing Fog
8:10 AM 26.6 °F 20.0 °F 26.6 °F 100% 29.98 in 0.5 mi North 5.8 mph - N/A Fog Light Freezing Fog
8:30 AM 26.6 °F 20.0 °F 26.6 °F 100% 29.98 in 0.5 mi North 5.8 mph - N/A Fog Light Freezing Fog
8:50 AM 26.6 °F 17.5 °F 26.6 °F 100% 30.00 in 0.5 mi NNW 9.2 mph - N/A Fog Light Freezing Fog
9:09 AM 26.6 °F 19.1 °F 26.6 °F 100% 30.01 in 0.2 mi North 6.9 mph - N/A Fog Light Freezing Fog
9:30 AM 26.6 °F 17.5 °F 26.6 °F 100% 30.01 in 0.5 mi North 9.2 mph - N/A Fog Light Freezing Fog
9:50 AM 28.4 °F 18.5 °F 28.4 °F 100% 30.00 in 0.5 mi North 11.5 mph - N/A Fog Light Freezing Fog
10:09 AM 28.4 °F 18.5 °F 28.4 °F 100% 30.00 in 0.5 mi North 11.5 mph - N/A Fog Light Freezing Fog
10:30 AM 28.4 °F 19.1 °F 28.4 °F 100% 30.01 in 0.2 mi North 10.4 mph - N/A Fog Light Freezing Fog
10:50 AM 28.4 °F 19.1 °F 28.4 °F 100% 30.02 in 0.5 mi North 10.4 mph - N/A Fog Light Freezing Fog
11:09 AM 28.4 °F 18.5 °F 28.4 °F 100% 30.01 in 0.5 mi North 11.5 mph - N/A Fog Light Freezing Fog
11:30 AM 28.4 °F 19.7 °F 28.4 °F 100% 30.01 in 0.5 mi North 9.2 mph - N/A Fog Light Freezing Fog
11:50 AM 28.4 °F 19.7 °F 28.4 °F 100% 30.01 in 0.8 mi North 9.2 mph - N/A   Overcast
12:10 PM 26.6 °F 16.8 °F 26.6 °F 100% 30.01 in 0.8 mi North 10.4 mph - N/A   Overcast
12:30 PM 26.6 °F 16.2 °F 26.6 °F 100% 30.01 in 0.8 mi North 11.5 mph 16.1 mph N/A   Overcast
12:49 PM 26.6 °F 16.8 °F 26.6 °F 100% 30.02 in 0.8 mi North 10.4 mph 16.1 mph N/A   Overcast
1:10 PM 26.6 °F 16.8 °F 26.6 °F 100% 30.02 in 0.8 mi North 10.4 mph - N/A   Overcast
1:30 PM 26.6 °F 14.7 °F 26.6 °F 100% 30.02 in 1.0 mi North 15.0 mph - N/A   Overcast
1:50 PM 26.6 °F 15.7 °F 26.6 °F 100% 30.01 in 1.2 mi North 12.7 mph - N/A   Overcast
2:10 PM 26.6 °F 16.2 °F 26.6 °F 100% 30.01 in 1.2 mi North 11.5 mph - N/A   Overcast
2:30 PM 26.6 °F 15.2 °F 26.6 °F 100% 30.02 in 1.5 mi North 13.8 mph - N/A   Overcast
2:49 PM 26.6 °F 15.7 °F 26.6 °F 100% 30.02 in 1.5 mi North 12.7 mph 17.3 mph N/A   Overcast
3:10 PM 26.6 °F 16.2 °F 26.6 °F 100% 30.03 in 2.0 mi North 11.5 mph - N/A   Overcast
3:30 PM 26.6 °F 15.7 °F 26.6 °F 100% 30.04 in 2.0 mi North 12.7 mph - N/A   Overcast
3:50 PM 26.6 °F 16.8 °F 26.6 °F 100% 30.05 in 2.0 mi North 10.4 mph - N/A   Overcast
4:10 PM 26.6 °F 15.7 °F 26.6 °F 100% 30.06 in 2.0 mi North 12.7 mph 18.4 mph N/A   Overcast
4:29 PM 26.6 °F 15.2 °F 26.6 °F 100% 30.06 in 2.5 mi North 13.8 mph - N/A   Overcast
4:50 PM 26.6 °F 15.7 °F 26.6 °F 100% 30.07 in 3.0 mi North 12.7 mph - N/A   Overcast
5:09 PM 26.6 °F 16.2 °F 26.6 °F 100% 30.08 in 3.0 mi North 11.5 mph 17.3 mph N/A   Overcast
5:30 PM 26.6 °F 15.7 °F 26.6 °F 100% 30.09 in 3.0 mi North 12.7 mph - N/A   Overcast
5:50 PM 26.6 °F 16.8 °F 26.6 °F 100% 30.10 in 5.0 mi North 10.4 mph 17.3 mph N/A   Overcast
6:09 PM 26.6 °F 16.2 °F 26.6 °F 100% 30.11 in 5.0 mi North 11.5 mph - N/A   Overcast
6:30 PM 26.6 °F 17.5 °F 26.6 °F 100% 30.12 in 5.0 mi North 9.2 mph - N/A   Overcast
6:50 PM 26.6 °F 17.5 °F 26.6 °F 100% 30.13 in 7.0 mi North 9.2 mph - N/A   Overcast
7:09 PM 26.6 °F 17.5 °F 26.6 °F 100% 30.14 in 7.0 mi North 9.2 mph - N/A   Overcast
7:30 PM 26.6 °F 18.2 °F 26.6 °F 100% 30.14 in 7.0 mi NNW 8.1 mph - N/A   Overcast
7:50 PM 26.6 °F 17.5 °F 26.6 °F 100% 30.14 in 7.0 mi NNW 9.2 mph - N/A   Overcast
8:09 PM 26.6 °F 18.2 °F 26.6 °F 100% 30.14 in 10.0 mi North 8.1 mph - N/A   Overcast
8:30 PM 26.6 °F 17.5 °F 24.8 °F 93% 30.15 in 10.0 mi NNW 9.2 mph - N/A   Overcast
8:49 PM 26.6 °F 18.2 °F 24.8 °F 93% 30.15 in 10.0 mi North 8.1 mph - N/A   Overcast
9:10 PM 26.6 °F 18.2 °F 24.8 °F 93% 30.16 in 10.0 mi NNW 8.1 mph - N/A   Overcast
9:30 PM 24.8 °F 16.1 °F 23.0 °F 93% 30.16 in 10.0 mi NNW 8.1 mph - N/A   Mostly Cloudy
9:50 PM 24.8 °F 16.9 °F 23.0 °F 93% 30.17 in 10.0 mi NNW 6.9 mph - N/A   Scattered Clouds
10:10 PM 24.8 °F 16.9 °F 21.2 °F 86% 30.17 in 10.0 mi North 6.9 mph - N/A   Scattered Clouds
10:29 PM 24.8 °F 16.9 °F 21.2 °F 86% 30.18 in 10.0 mi North 6.9 mph - N/A   Scattered Clouds
10:50 PM 24.8 °F 16.9 °F 21.2 °F 86% 30.18 in 10.0 mi NNW 6.9 mph - N/A   Mostly Cloudy
11:10 PM 24.8 °F 16.9 °F 21.2 °F 86% 30.18 in 10.0 mi North 6.9 mph - N/A   Mostly Cloudy
11:29 PM 24.8 °F 16.9 °F 21.2 °F 86% 30.19 in 10.0 mi North 6.9 mph - N/A   Overcast
11:50 PM 24.8 °F 16.9 °F 21.2 °F 86% 30.19 in 10.0 mi North 6.9 mph - N/A   Overcast